Weather History for Salem, OR

Change the Weather History Date:

Thursday, May 15, 2014

  Actual Average Record
Temperature  
Mean Temperature 68 °F 56 °F  
Max Temperature 81 °F 68 °F 95 °F (2006)
Min Temperature 54 °F 45 °F 33 °F (1932)
Degree Days  
Heating Degree Days 0 9  
Month to date heating degree days 101 158  
Since 1 July heating degree days 4228 4401  
Cooling Degree Days 3 0  
Month to date cooling degree days 13 0  
Year to date cooling degree days 14 0  
Growing Degree Days 18 (Base 50)    
Moisture  
Dew Point 52 °F    
Average Humidity 60    
Maximum Humidity 86    
Minimum Humidity 33    
Precipitation  
Precipitation 0.00 in 0.07 in 0.86 in (1945)
Month to date precipitation 1.52 1.07  
Year to date precipitation 20.82 18.39  
Sea Level Pressure  
Sea Level Pressure 30.03 in    
Wind  
Wind Speed 6 mph (SSW)    
Max Wind Speed 14 mph    
Max Gust Speed 18 mph    
Visibility 10 miles    
Events      
T = Trace of Precipitation, MM = Missing Value Source: NWS Daily Summary

Daily Weather History Graph

Daily Weather History Graph

Search for Another Location

Airport:

Trip Planner

Search our weather history database for the weather conditions in past years. The results will help you decide how hot, cold, wet, or windy it might be!

Date:

Astronomy

May. 15, 2014 Rise Set
Actual Time 5:43 AM PDT 8:34 PM PDT
Civil Twilight 5:08 AM PDT 9:08 PM PDT
Nautical Twilight 4:25 AM PDT 9:52 PM PDT
Astronomical Twilight 3:34 AM PDT 10:43 PM PDT
Moon 9:47 PM PDT (5/15) 6:35 AM PDT (5/15)
Length of Visible Light 15h 59m
Length of Day
14h 51m
Full, 99% of the Moon is Illuminated
May 15
Full
May 21
Last Quarter
May 28
New
Jun 5
First Quarter
Jun 12
Full

Hourly Weather History & Observations

Time (PDT) Temp. Heat Index Dew Point Humidity Pressure Visibility Wind Dir Wind Speed Gust Speed Precip Events Conditions
12:56 AM 63.0 °F - 55.0 °F 75% 30.04 in 10.0 mi Calm Calm - N/A   Clear
1:56 AM 62.1 °F - 54.0 °F 75% 30.04 in 10.0 mi South 5.8 mph - N/A   Clear
2:56 AM 59.0 °F - 54.0 °F 83% 30.02 in 10.0 mi South 4.6 mph - N/A   Clear
3:56 AM 59.0 °F - 53.1 °F 81% 30.02 in 10.0 mi SSE 3.5 mph - N/A   Clear
4:56 AM 59.0 °F - 53.1 °F 81% 30.02 in 10.0 mi Calm Calm - N/A   Clear
5:56 AM 57.0 °F - 53.1 °F 87% 30.03 in 10.0 mi Calm Calm - N/A   Clear
6:56 AM 60.1 °F - 55.0 °F 83% 30.03 in 10.0 mi Calm Calm - N/A   Clear
7:56 AM 66.9 °F - 55.0 °F 66% 30.03 in 10.0 mi SSE 6.9 mph - N/A   Clear
8:56 AM 69.1 °F - 54.0 °F 58% 30.03 in 10.0 mi South 6.9 mph - N/A   Clear
9:56 AM 72.0 °F - 51.1 °F 48% 30.03 in 10.0 mi South 6.9 mph - N/A   Clear
10:56 AM 75.0 °F - 54.0 °F 48% 30.03 in 10.0 mi SSE 8.1 mph - N/A   Clear
11:56 AM 77.0 °F - 52.0 °F 42% 30.03 in 10.0 mi SSW 10.4 mph - N/A   Clear
12:56 PM 79.0 °F - 55.0 °F 44% 30.02 in 10.0 mi SSW 9.2 mph - N/A   Clear
1:56 PM 80.1 °F 79.9 °F 53.1 °F 39% 30.01 in 10.0 mi South 10.4 mph - N/A   Clear
2:56 PM 80.1 °F 79.9 °F 53.1 °F 39% 30.01 in 10.0 mi SSE 8.1 mph - N/A   Clear
3:56 PM 79.0 °F - 53.1 °F 40% 30.01 in 10.0 mi SW 6.9 mph - N/A   Clear
4:56 PM 79.0 °F - 55.9 °F 45% 30.01 in 10.0 mi South 8.1 mph - N/A   Clear
5:56 PM 78.1 °F - 52.0 °F 40% 30.01 in 10.0 mi WSW 6.9 mph - N/A   Clear
6:56 PM 75.0 °F - 45.0 °F 34% 30.01 in 10.0 mi WSW 8.1 mph - N/A   Clear
7:56 PM 71.1 °F - 48.0 °F 44% 30.03 in 10.0 mi WSW 8.1 mph - N/A   Clear
8:56 PM 66.9 °F - 48.0 °F 51% 30.05 in 10.0 mi WSW 8.1 mph - N/A   Clear
9:56 PM 63.0 °F - 45.0 °F 52% 30.07 in 10.0 mi Calm Calm - N/A   Clear
10:56 PM 60.1 °F - 42.1 °F 51% 30.09 in 10.0 mi SW 6.9 mph - N/A   Clear
11:56 PM 55.9 °F - 45.0 °F 67% 30.12 in 10.0 mi SSW 6.9 mph - N/A   Clear